Regional Weather Roundup
Issued by NWS

Home | Current Version | Previous Version | Graphics & Text | Print | Product List | Glossary On
Versions: 1 2 3 4 5 6 7 8 9 10 11 12 13 14 15 16 17 18 19 20 21 22 23 24 25 26 27 28 29 30 31 32 33 34 35 36 37 38 39 40 41 42 43 44 45 46 47 48 49 50
000
ASUS43 KOAX 312310
RWRNE

WEATHER ROUNDUP FOR NEBRASKA
NATIONAL WEATHER SERVICE OMAHA NE
600 PM CDT THU JUL 31 2014

NOTES: SATELLITE DATA IS BEING USED TO AUGMENT CLOUD COVER ABOVE
       12000 FEET.
       "FAIR" INDICATES FEW OR NO CLOUDS BELOW 12,000 FEET WITH NO
       SIGNIFICANT WEATHER AND/OR OBSTRUCTIONS TO VISIBILITY.

  * THESE STATIONS DO NOT REPORT WEATHER SUCH AS RAIN...SNOW OR FOG.

NEZ001>004-019>022-054>056-010000-
NEBRASKA PANHANDLE

CITY           SKY/WX    TMP DP  RH WIND       PRES   REMARKS
SCOTTSBLUFF    SUNNY     86  43  22 VRB5      30.15F
ALLIANCE       SUNNY     83  41  22 NE9       30.15F
CHADRON        SUNNY     88  45  22 NE8       30.11F
KIMBALL        PTSUNNY   81  44  26 NE3       30.19F
SIDNEY         PTSUNNY   88  38  17 N9        30.17F
$$

NEZ057>060-069>072-079>082-010000-
SOUTHWEST NEBRASKA

CITY           SKY/WX    TMP DP  RH WIND       PRES   REMARKS
NORTH PLATTE   SUNNY     87  48  25 NE13      30.06F
IMPERIAL       SUNNY     85  50  29 W7        30.11F
LEXINGTON      SUNNY     88  52  29 NW9       30.04S
MCCOOK         MOSUNNY   89  48  24 NW6       30.06F
OGALLALA       SUNNY     86  42  21 N12       30.10S
$$

NEZ005>010-023>029-035>040-094-010000-
NORTH CENTRAL NEBRASKA

CITY           SKY/WX    TMP DP  RH WIND       PRES   REMARKS
VALENTINE      SUNNY     88  50  27 NW8       30.08F
AINSWORTH      MOSUNNY   82  49  32 N6G17     30.08S
BROKEN BOW     SUNNY     85  57  38 N16G23    30.04F
O`NEILL        PTSUNNY   82  64  54 NE16      30.06R
ORD            SUNNY     87  57  35 N14       30.01S
THEDFORD       SUNNY     86  50  29 N9G17     30.09F
$$

NEZ041-046>049-061>064-073>077-083>087-010000-
SOUTH CENTRAL NEBRASKA

CITY           SKY/WX    TMP DP  RH WIND       PRES   REMARKS
GRAND ISLAND   SUNNY     89  60  37 SW8       30.00F
AURORA         MOSUNNY   85  61  43 SW8       30.01R
HASTINGS       MOSUNNY   84  57  39 S5        30.01F
HEBRON         MOSUNNY   85  49  27 SW5       30.01F
HOLDREGE       SUNNY     88  54  31 CALM      30.02F
KEARNEY *      MOSUNNY   90  54  29 W12       30.01F
YORK           PTSUNNY   73  64  73 E15G25    30.03R THUNDER
$$

NEZ011>018-030>034-042>045-010000-
NORTHEAST NEBRASKA

CITY           SKY/WX    TMP DP  RH WIND       PRES   REMARKS
NORFOLK        PTSUNNY   78  61  55 E8        30.02R
ALBION         MOSUNNY   82  65  56 SE16      30.01R
BLAIR          PTSUNNY   79  59  49 E8        30.03S
COLUMBUS *     MOSUNNY   75  64  69 S8        30.01F
FREMONT        PTSUNNY   84  57  40 SE6       30.02S
TEKAMAH        SUNNY     81  60  48 E12       30.03S
WAYNE          SUNNY     79  64  60 E9        30.04F
$$

NEZ050>053-065>068-078-088>093-010000-
SOUTHEAST NEBRASKA

CITY           SKY/WX    TMP DP  RH WIND       PRES   REMARKS
LINCOLN        CLOUDY    83  57  41 SE9       30.02S
OMAHA EPPLEY   PTSUNNY   83  57  41 E14       30.02F
BEATRICE       MOSUNNY   86  57  36 S6        30.01F
FALLS CITY     MOSUNNY   83  55  38 S7        30.03F
NEBRASKA CITY  PTSUNNY   80  56  43 SE5       30.03S
PLATTSMOUTH    PTSUNNY   83  55  38 SE5       30.03S
$$

NEZ044-045-051>053-067-010000-
OMAHA AREA

CITY           SKY/WX    TMP DP  RH WIND       PRES   REMARKS
OMAHA EPPLEY   PTSUNNY   83  57  41 E14       30.02F
BLAIR          PTSUNNY   79  59  49 E8        30.03S
FREMONT        PTSUNNY   84  57  40 SE6       30.02S
MILLARD        CLOUDY    85  58  39 SE6       30.01F
OFFUTT AFB     MOSUNNY   84  58  41 SE9       30.02S
PLATTSMOUTH    PTSUNNY   83  55  38 SE5       30.03S
WAHOO          MOCLDY    83  58  41 SE7       30.02S
$$



USA.gov is the U.S. government's official web portal to all federal, state and local government web resources and services.